Wind_Speed
41 41 41 41 40 40 40 40 41 42 44 45 47 48 50 51 52 52 52 51 50 49 49 49 49 49 50 48 45 43 42 42 42 42 41 40 40 38 36 34 31 28 25
42 42 42 41 40 40 41 41 42 43 45 48 50 51 53 54 55 56 56 55 54 54 53 53 52 52 52 52 51 48 45 44 45 44 42 42 42 41 40 38 34 32 28
44 43 42 42 41 41 41 42 44 46 48 50 52 53 55 56 58 60 61 60 59 58 57 56 56 55 55 55 54 53 51 48 46 46 44 44 44 43 42 41 38 35 31
44 44 43 42 42 42 42 44 46 48 50 51 52 53 55 57 58 60 61 61 61 60 60 59 59 58 58 57 57 56 55 53 50 47 46 47 45 45 44 43 41 38 35
45 44 43 43 42 42 43 44 47 49 50 51 52 53 54 54 55 56 57 59 59 59 59 59 59 60 61 60 59 59 58 56 54 50 46 47 48 46 45 45 43 41 38
45 44 44 43 42 42 44 45 47 49 49 50 51 51 50 50 51 52 52 53 54 55 55 57 58 60 62 62 61 61 60 59 56 55 51 49 48 47 47 47 45 44 41
45 45 44 43 42 43 44 46 47 48 49 49 48 47 46 45 45 45 46 46 47 49 50 52 55 57 60 62 63 62 61 60 59 57 55 51 49 50 48 48 47 45 44
46 45 44 43 43 43 45 46 47 47 47 46 44 42 41 39 39 38 39 40 41 43 46 48 50 53 56 59 61 62 62 61 60 58 55 53 51 50 49 49 49 48 46
46 44 44 43 43 44 45 46 46 46 44 42 40 39 37 35 33 32 32 33 34 37 41 44 45 47 50 53 57 60 61 62 60 59 58 56 53 50 50 49 49 48 46
45 44 43 43 44 44 45 45 44 43 41 39 38 36 33 30 27 26 26 26 28 31 35 39 40 42 45 48 51 55 58 60 60 60 59 58 56 52 50 50 48 48 47
45 44 43 43 44 44 44 43 43 41 39 38 36 33 29 26 23 21 20 21 23 26 30 33 37 40 42 43 46 49 52 56 58 58 58 58 57 55 52 49 48 46 46
45 43 42 43 43 43 42 41 40 38 37 36 34 30 26 23 20 16 14 15 19 23 26 29 33 36 39 40 42 44 47 50 54 56 56 56 56 55 53 51 48 46 45
44 42 42 42 42 41 40 39 38 37 36 35 32 28 23 19 15 12 10 11 14 19 24 26 29 32 34 36 38 41 43 45 48 52 53 54 54 55 54 52 50 47 44
44 42 41 41 41 39 39 39 37 35 35 33 30 25 21 17 12 9 6 9 13 18 21 23 25 27 28 30 34 36 38 40 43 46 50 52 53 54 54 53 50 48 46
43 42 40 40 40 38 37 37 36 34 33 31 28 24 19 14 10 6 5 8 12 16 19 20 22 23 24 25 27 30 33 36 39 42 46 48 51 53 52 51 50 47 45
43 41 40 39 38 37 36 36 35 33 30 28 25 22 17 12 7 2 4 8 11 14 18 19 20 21 22 23 24 26 29 32 36 39 42 44 48 50 51 49 48 46 44
42 40 39 38 37 36 35 34 33 31 28 26 23 20 16 11 7 3 4 8 11 14 16 17 19 20 21 22 23 24 26 29 33 37 40 43 45 48 49 49 47 46 44
41 39 38 37 36 35 34 34 32 29 26 23 21 18 14 11 6 3 4 8 12 14 15 16 18 19 20 21 22 23 23 25 30 35 40 43 44 45 47 48 47 44 43
40 38 36 35 35 34 33 33 30 27 24 21 19 17 13 9 6 4 5 8 11 13 13 14 15 17 18 19 20 21 22 24 27 33 38 42 45 46 46 47 46 43 42
39 37 35 34 33 33 33 31 29 26 23 20 18 15 12 8 5 2 4 7 9 11 11 12 13 15 16 17 18 19 21 23 26 31 36 40 43 46 47 46 46 44 42
37 35 33 32 32 32 32 31 27 24 23 21 18 15 11 8 4 1 3 5 8 9 10 12 13 14 15 16 18 19 21 22 25 29 33 38 40 43 44 45 44 43 43
36 33 31 30 30 30 30 29 26 24 22 21 19 16 13 8 5 2 2 5 7 9 11 12 13 14 15 16 17 19 21 23 25 27 31 35 38 41 43 45 45 44 44
34 32 30 29 28 28 28 27 25 22 21 20 18 17 15 11 7 4 2 3 5 7 9 11 12 13 14 15 17 19 21 23 25 28 32 35 37 40 43 45 45 44 44
32 30 28 26 25 25 26 25 23 20 20 20 18 18 17 13 10 7 4 2 1 3 6 8 10 12 13 15 17 18 21 23 25 28 31 35 35 37 41 43 44 43 42
30 28 26 24 22 22 23 23 21 19 18 18 18 17 17 16 14 11 8 5 2 1 3 4 6 8 10 12 14 16 18 21 24 27 31 33 36 38 40 42 41 40 40
29 26 24 22 20 19 20 20 20 18 17 17 17 17 17 18 16 14 11 9 7 5 3 4 4 6 8 11 12 14 17 20 23 26 30 32 35 37 38 39 38 38 37
Wind_Direction
312 310 307 303 300 297 294 291 289 287 286 285 283 280 278 276 274 273 270 267 263 260 257 253 250 248 244 241 238 234 231 226 224 221 220 218 215 212 211 211 211 212 215
315 312 309 305 301 298 295 294 292 291 289 287 285 282 279 276 274 271 268 266 262 259 255 252 248 246 244 241 239 236 231 227 225 222 220 219 217 215 213 213 212 214 216
317 314 311 307 303 300 297 296 295 294 293 290 288 284 281 278 275 271 267 264 261 258 254 250 246 244 242 240 237 236 233 229 226 225 221 219 218 216 216 215 214 215 217
319 317 313 310 306 303 301 300 299 298 297 295 291 287 283 279 276 272 268 264 260 256 253 249 245 241 239 237 235 234 233 230 227 226 223 221 219 218 218 217 216 217 218
321 319 316 312 309 306 305 304 304 303 301 299 295 291 286 281 277 272 267 263 259 254 250 246 242 239 237 235 233 232 231 231 229 226 224 221 220 219 219 218 218 218 219
324 322 319 316 313 311 310 310 309 308 306 303 300 295 289 284 278 273 267 262 257 252 247 243 240 237 234 233 231 230 229 230 229 227 225 223 222 220 220 220 219 219 220
326 324 322 319 317 316 315 314 314 313 310 308 303 298 294 288 282 274 268 261 256 250 245 240 238 235 232 231 230 229 228 227 228 227 226 224 223 221 220 220 220 219 220
328 327 324 323 321 320 319 319 318 317 315 312 308 303 299 293 286 278 269 261 255 247 241 237 235 232 230 229 228 227 227 225 225 225 223 223 222 221 218 219 220 220 220
330 329 327 326 325 323 323 322 322 321 319 316 312 308 304 297 289 280 270 260 251 243 237 233 231 229 227 226 226 226 225 224 224 223 223 222 221 222 221 219 219 219 220
332 331 329 328 328 327 326 326 326 325 324 322 317 313 309 302 293 283 271 259 248 238 230 226 225 223 221 221 222 223 224 223 223 222 223 222 223 224 223 220 219 220 220
334 333 332 331 331 330 330 329 330 330 329 327 324 320 314 307 300 288 272 255 240 229 222 219 218 217 216 216 218 219 221 222 221 220 221 221 222 223 222 221 221 220 220
336 335 334 334 334 334 333 333 333 333 333 332 329 325 321 313 306 293 270 247 229 218 213 212 212 210 211 211 212 214 217 219 220 220 220 221 222 221 221 221 221 219 219
338 337 337 337 337 337 337 337 336 336 337 336 334 330 325 320 311 296 267 235 214 206 204 204 204 205 207 209 209 211 214 216 218 219 220 220 220 221 221 221 221 222 222
339 339 338 339 340 340 340 340 339 339 340 340 339 336 331 325 316 299 257 220 202 195 196 197 197 199 201 204 206 209 212 214 215 217 217 217 218 219 220 221 222 223 223
340 340 340 341 342 342 342 342 342 342 344 345 346 345 340 334 323 300 240 206 193 191 191 192 192 193 194 197 200 203 206 210 212 213 215 216 218 219 220 222 222 221 222
342 341 342 343 344 345 345 344 344 345 347 349 351 353 354 353 350 330 193 189 186 185 186 186 185 186 190 192 196 200 203 205 206 207 209 211 214 215 217 218 219 220 221
343 343 343 345 346 346 347 347 347 347 349 352 355 357 1 6 16 57 148 168 174 176 177 181 183 185 188 190 193 196 199 202 203 203 203 205 208 211 213 214 216 217 218
344 344 345 347 348 348 349 349 350 350 351 354 357 0 4 11 26 69 141 164 170 174 178 180 183 186 189 191 193 195 197 200 200 201 201 201 203 205 208 209 211 211 212
344 345 346 348 350 351 351 352 353 354 355 355 359 2 5 14 33 80 133 157 171 177 180 182 185 188 190 193 195 196 198 200 200 200 199 200 201 202 203 205 207 208 208
344 346 347 349 352 353 354 355 357 359 359 360 1 4 10 16 29 84 145 161 171 181 188 193 196 197 197 198 199 200 201 202 201 199 198 199 199 200 201 201 202 204 205
344 346 347 349 353 355 356 358 1 3 5 7 8 8 11 19 31 80 172 184 191 196 201 205 208 209 209 208 207 205 204 204 203 202 201 199 199 198 198 198 199 201 201
344 345 347 349 353 356 357 360 3 6 8 10 11 12 13 12 7 4 221 216 214 214 214 212 212 212 213 213 211 208 207 207 204 201 199 198 198 198 197 196 196 198 199
343 345 346 348 352 355 358 0 4 6 10 13 13 15 16 17 11 359 324 258 232 223 218 215 216 216 215 211 209 208 206 203 202 200 198 197 197 197 195 194 195 196 198
343 344 345 347 351 355 358 1 5 8 13 18 20 18 19 22 20 15 9 359 254 218 217 219 220 219 217 216 214 210 207 204 201 198 196 195 193 193 191 190 192 195 196
341 342 343 344 349 354 358 2 6 10 13 17 20 20 22 24 25 23 22 27 35 203 213 209 213 213 209 208 203 202 201 198 196 195 193 192 191 191 190 189 190 193 194
339 339 340 341 344 350 356 2 6 10 13 18 21 23 27 29 33 35 40 46 54 72 105 135 152 167 179 185 185 186 187 186 186 186 185 184 185 186 187 186 187 190 193
Height
5741 5735 5729 5724 5719 5714 5710 5707 5704 5701 5698 5695 5693 5690 5688 5686 5685 5685 5686 5688 5691 5694 5698 5702 5707 5711 5717 5723 5729 5735 5742 5748 5755 5761 5768 5774 5779 5786 5792 5798 5803 5808 5813
5731 5725 5718 5713 5708 5703 5699 5695 5691 5688 5685 5681 5678 5675 5672 5670 5668 5667 5668 5669 5672 5676 5681 5686 5691 5697 5703 5709 5716 5723 5730 5737 5744 5751 5759 5765 5770 5777 5783 5790 5796 5801 5806
5721 5714 5708 5702 5697 5692 5687 5683 5678 5674 5670 5665 5661 5657 5653 5650 5648 5647 5647 5649 5652 5656 5661 5667 5674 5680 5688 5695 5702 5710 5717 5725 5733 5741 5749 5755 5760 5767 5774 5781 5788 5794 5799
5712 5704 5698 5691 5685 5680 5675 5670 5665 5659 5653 5648 5642 5637 5633 5629 5626 5624 5624 5626 5629 5634 5640 5646 5654 5662 5670 5678 5687 5695 5703 5712 5721 5729 5737 5744 5751 5758 5765 5772 5780 5786 5792
5702 5694 5687 5681 5674 5668 5663 5656 5650 5643 5636 5630 5623 5617 5611 5607 5604 5602 5601 5603 5607 5612 5619 5625 5633 5642 5651 5661 5670 5680 5688 5698 5707 5716 5725 5732 5740 5748 5756 5763 5771 5777 5783
5692 5685 5677 5670 5663 5657 5650 5643 5636 5628 5620 5612 5604 5597 5591 5586 5582 5580 5580 5582 5586 5591 5598 5605 5613 5622 5631 5642 5653 5664 5674 5684 5694 5704 5712 5721 5730 5739 5746 5754 5761 5769 5775
5683 5675 5667 5660 5653 5645 5638 5630 5621 5613 5604 5595 5586 5578 5572 5567 5563 5560 5560 5562 5567 5572 5579 5586 5593 5603 5613 5625 5636 5647 5658 5669 5680 5691 5700 5710 5718 5728 5736 5744 5751 5758 5766
5675 5666 5658 5650 5643 5634 5626 5617 5608 5599 5589 5580 5571 5563 5556 5551 5546 5543 5543 5545 5549 5555 5561 5569 5577 5586 5597 5608 5619 5631 5642 5654 5667 5678 5688 5698 5707 5715 5723 5732 5739 5747 5756
5667 5658 5649 5641 5633 5624 5615 5606 5597 5587 5577 5567 5558 5550 5543 5538 5533 5530 5529 5531 5535 5540 5546 5554 5563 5572 5582 5593 5604 5617 5628 5639 5650 5663 5674 5683 5694 5703 5711 5720 5729 5738 5746
5659 5650 5641 5633 5624 5615 5606 5596 5586 5576 5566 5557 5548 5540 5533 5527 5523 5520 5518 5519 5523 5528 5534 5542 5551 5560 5568 5578 5590 5601 5613 5625 5637 5649 5661 5671 5682 5692 5701 5710 5719 5728 5737
5652 5643 5634 5625 5616 5607 5597 5587 5578 5568 5559 5549 5540 5532 5525 5519 5515 5512 5510 5511 5514 5518 5525 5532 5541 5550 5558 5568 5578 5589 5600 5612 5624 5636 5648 5659 5670 5681 5691 5700 5709 5719 5728
5646 5637 5628 5618 5609 5599 5590 5580 5571 5561 5552 5543 5534 5526 5519 5513 5509 5506 5505 5505 5507 5512 5518 5526 5533 5541 5550 5559 5569 5579 5590 5601 5613 5625 5637 5648 5660 5671 5681 5691 5700 5709 5718
5640 5631 5622 5612 5603 5593 5584 5574 5565 5556 5547 5538 5529 5521 5515 5509 5506 5503 5502 5503 5505 5509 5515 5521 5528 5536 5544 5553 5562 5571 5581 5592 5603 5615 5627 5638 5649 5660 5671 5680 5690 5699 5708
5635 5625 5616 5607 5598 5588 5579 5570 5561 5552 5544 5535 5526 5518 5512 5507 5504 5502 5501 5502 5505 5509 5514 5520 5526 5533 5540 5548 5556 5565 5574 5584 5594 5605 5616 5628 5639 5649 5660 5671 5681 5690 5700
5630 5621 5612 5603 5593 5584 5575 5566 5557 5549 5541 5532 5524 5517 5511 5507 5504 5502 5502 5503 5506 5510 5515 5520 5526 5532 5538 5545 5552 5560 5568 5577 5586 5596 5607 5618 5628 5639 5650 5661 5671 5681 5691
5626 5617 5608 5599 5590 5581 5572 5563 5554 5547 5539 5531 5524 5518 5512 5508 5505 5503 5503 5505 5508 5511 5516 5521 5526 5531 5537 5543 5550 5556 5563 5571 5580 5589 5599 5609 5619 5630 5641 5651 5662 5672 5682
5622 5613 5605 5596 5587 5578 5570 5561 5553 5546 5539 5532 5525 5520 5515 5511 5508 5507 5506 5508 5510 5514 5517 5522 5526 5531 5537 5542 5548 5554 5560 5566 5574 5582 5592 5601 5611 5621 5632 5643 5653 5664 5674
5619 5610 5602 5594 5585 5577 5568 5560 5553 5545 5539 5533 5527 5522 5518 5515 5512 5511 5510 5512 5514 5517 5520 5524 5527 5532 5536 5541 5546 5551 5557 5562 5569 5576 5585 5594 5604 5614 5624 5635 5645 5656 5666
5616 5608 5600 5592 5584 5576 5568 5560 5553 5546 5539 5534 5529 5525 5521 5518 5516 5515 5515 5516 5517 5520 5523 5526 5529 5533 5536 5540 5545 5549 5554 5559 5564 5571 5579 5588 5597 5607 5617 5627 5638 5648 5658
5614 5606 5599 5591 5583 5575 5568 5560 5553 5547 5541 5535 5531 5527 5524 5521 5520 5519 5519 5519 5521 5523 5525 5527 5530 5533 5536 5539 5543 5547 5551 5556 5561 5568 5575 5583 5591 5600 5610 5620 5631 5641 5652
5612 5605 5598 5590 5583 5576 5568 5561 5555 5548 5543 5537 5533 5529 5526 5524 5522 5521 5521 5522 5523 5524 5525 5527 5529 5532 5535 5537 5540 5544 5549 5553 5558 5564 5570 5578 5586 5595 5604 5614 5624 5635 5645
5610 5604 5597 5590 5583 5576 5570 5563 5556 5550 5545 5540 5535 5531 5527 5525 5524 5523 5523 5523 5523 5524 5525 5526 5528 5530 5532 5534 5537 5541 5545 5549 5554 5560 5567 5574 5582 5591 5599 5609 5619 5629 5639
5608 5602 5596 5590 5584 5577 5571 5565 5558 5553 5548 5542 5538 5534 5530 5527 5525 5524 5523 5523 5523 5523 5524 5525 5526 5528 5530 5532 5535 5538 5542 5546 5551 5556 5563 5571 5579 5587 5596 5605 5615 5625 5634
5607 5601 5595 5590 5584 5578 5572 5566 5561 5556 5551 5546 5541 5537 5533 5530 5527 5525 5524 5523 5522 5522 5523 5523 5524 5526 5527 5529 5532 5535 5538 5543 5548 5553 5560 5568 5576 5585 5593 5603 5612 5621 5630
5605 5599 5594 5589 5584 5579 5574 5568 5563 5558 5554 5550 5545 5541 5537 5533 5530 5527 5525 5524 5522 5522 5522 5522 5523 5524 5525 5527 5530 5533 5536 5540 5545 5552 5559 5567 5575 5583 5591 5600 5609 5618 5626
5602 5597 5593 5588 5584 5580 5575 5570 5565 5561 5556 5553 5549 5545 5541 5538 5534 5531 5528 5526 5524 5523 5522 5522 5523 5523 5524 5526 5529 5532 5535 5540 5545 5552 5559 5566 5574 5582 5590 5599 5607 5616 5624